SCP
0 0 0 0 0 0 0 0 0 0 0 0 -0 0 0 -0 0 0 0 0 0 0 0 0 0 0 0 0 0 0 0 0 0 0 0 0 0 0 0 0 0 0 0
1 0 0 0 0 0 0 0 0 0 0 0 0 -0 0 0 0 0 0 0 0 0 0 0 0 0 0 0 0 0 0 0 0 0 0 0 0 0 0 0 0 0 0
1 1 0 0 0 0 0 0 0 0 0 -0 -0 0 0 1 1 0 0 0 0 0 0 0 0 0 0 0 0 0 0 0 0 0 0 0 0 0 0 0 0 0 0
2 1 0 1 1 1 0 0 0 0 0 0 -0 1 1 1 1 0 0 0 0 0 0 0 0 0 0 0 0 0 0 0 0 0 0 0 0 0 0 0 0 0 0
1 1 1 1 1 1 0 0 0 0 0 -0 1 1 1 1 0 1 1 0 0 0 0 0 0 0 0 0 0 0 0 0 0 0 0 0 0 0 0 0 0 0 0
1 1 1 1 1 1 1 0 0 0 0 0 0 1 2 1 1 1 1 0 0 0 0 0 0 0 0 0 0 0 0 0 0 0 0 0 0 0 0 0 0 0 0
1 1 1 2 1 1 1 1 1 1 1 1 1 1 1 1 1 0 0 0 0 0 0 0 0 0 0 0 0 0 0 0 0 0 0 0 0 0 0 0 0 0 0
1 2 1 2 1 1 1 1 1 1 1 2 2 1 1 0 0 0 0 0 0 0 0 0 0 0 0 0 0 0 0 0 0 0 0 0 0 0 0 0 0 0 0
2 2 1 1 1 1 2 3 2 1 1 2 1 1 1 0 0 0 0 0 0 0 0 0 0 0 0 0 0 0 0 0 0 0 0 0 0 0 0 0 0 0 0
3 3 1 3 3 1 2 2 2 1 1 1 2 1 1 1 0 0 0 0 0 0 0 0 0 0 0 0 0 0 0 0 0 0 0 0 0 0 0 0 0 0 0
4 2 2 2 3 2 2 2 2 2 2 1 1 1 1 0 0 0 0 0 0 0 0 0 0 0 0 0 0 0 0 0 0 0 0 0 0 0 0 0 0 0 0
4 3 2 2 4 3 4 2 3 2 1 2 1 1 0 0 0 0 0 0 0 0 0 0 0 0 0 0 0 0 0 0 0 0 0 0 0 0 0 0 0 0 0
3 3 2 2 5 4 5 4 3 3 3 2 1 0 0 0 0 0 0 0 0 0 0 0 0 0 0 0 0 0 0 0 0 0 0 0 0 0 0 0 0 0 0
3 3 3 4 5 5 4 5 3 1 0 0 0 0 0 0 0 0 0 0 0 0 0 0 0 0 0 0 0 0 0 0 0 0 0 0 0 0 0 0 0 0 0
3 2 2 3 4 5 5 3 1 0 0 0 0 0 0 0 0 0 0 0 0 0 0 0 0 0 0 0 0 0 0 0 0 0 0 0 0 0 0 0 0 0 0
1 0 2 3 4 4 2 0 0 0 0 0 0 0 0 0 0 0 0 0 0 0 0 0 0 0 0 0 0 0 0 0 0 0 0 0 0 0 0 0 0 0 0
1 1 0 2 2 0 0 0 0 0 0 0 0 0 0 0 0 0 0 0 0 0 0 0 0 0 0 0 0 0 0 0 0 0 0 0 0 0 0 0 0 -0 -0
1 0 0 0 0 0 0 0 0 0 0 0 0 0 0 0 0 0 0 0 0 0 0 0 0 0 0 0 0 0 0 0 0 0 0 0 0 0 0 0 0 -0 0
0 0 0 0 0 0 0 0 0 0 0 0 0 0 0 0 0 0 0 0 0 0 0 0 0 0 0 0 0 0 0 0 0 0 0 0 0 0 0 0 -0 0 0
0 0 0 0 0 0 0 0 0 0 0 0 0 0 0 0 0 0 0 0 0 0 0 0 0 0 0 0 0 0 0 0 0 0 0 0 0 0 0 0 0 0 0
0 0 0 0 0 0 0 0 0 0 0 0 0 0 0 0 0 0 0 0 0 0 0 0 0 0 0 0 0 0 0 0 0 0 0 0 0 0 0 0 0 0 0
0 0 0 0 0 0 0 0 0 0 0 0 0 0 0 0 0 -0 -0 -0 0 0 0 0 0 0 0 0 0 0 0 0 0 0 0 0 0 0 0 0 0 0 0
0 0 0 0 0 0 0 0 0 0 0 0 0 -0 0 0 0 -0 -0 -0 0 0 0 0 0 0 0 0 0 0 0 0 0 0 0 0 0 0 0 0 0 0 0
0 0 0 0 0 0 0 0 0 0 0 0 0 0 0 0 -0 -0 0 0 0 -0 -0 -0 -0 0 0 0 0 0 0 0 0 0 0 0 0 0 0 0 0 0 0
0 0 0 0 0 0 0 0 0 0 0 0 0 0 -0 -0 -0 -0 -0 0 0 -0 -0 -0 0 0 -0 -0 0 0 0 0 0 0 0 0 0 0 0 0 0 0 0
0 0 0 0 0 0 0 0 0 0 0 0 0 -0 -0 -0 -0 -0 0 0 0 -0 0 -0 -0 -0 -0 0 0 0 0 0 0 0 0 0 0 0 0 0 0 0 0
Wind_Speed_500mb
49 45 39 26 23 28 14 20 10 19 10 18 24 7 10 11 22 29 29 27 30 25 35 31 29 29 28 31 32 34 33 35 37 40 43 43 46 47 49 54 51 45 40
50 48 46 37 26 23 14 22 20 22 30 18 11 14 14 11 22 27 22 22 21 27 30 28 32 29 31 32 33 38 35 34 34 36 39 40 40 47 53 49 48 47 46
50 50 49 40 35 33 33 23 25 28 26 17 16 26 15 17 21 20 24 24 21 22 21 27 23 31 33 30 32 34 36 39 38 39 40 45 53 55 56 49 48 48 48
54 47 45 43 38 36 38 31 30 27 17 12 13 23 22 18 11 21 24 22 22 22 19 16 26 33 30 29 29 30 36 40 44 50 50 55 61 65 59 51 47 48 48
55 51 50 47 42 40 32 35 32 27 19 21 20 25 23 28 11 14 16 20 25 16 19 23 27 33 28 36 36 38 37 43 50 54 56 62 65 63 59 55 50 49 48
59 54 54 46 47 45 38 31 32 27 27 22 15 19 13 16 16 15 14 12 16 16 16 20 26 24 25 35 27 35 46 53 54 59 63 63 59 59 54 49 50 50 49
65 58 58 50 53 53 39 36 34 32 31 23 25 17 24 22 23 20 11 8 1 10 7 13 18 11 26 35 39 45 45 54 60 63 57 57 58 51 49 49 50 49 46
64 68 61 57 58 46 43 40 41 36 30 24 24 14 17 11 14 12 12 6 16 12 3 13 25 13 18 24 37 47 52 57 63 56 55 57 55 50 50 47 50 50 46
64 72 64 57 56 45 43 45 44 37 27 28 22 23 2 2 14 15 9 4 10 12 17 11 19 25 27 10 31 45 52 60 57 56 60 61 55 52 51 47 48 49 47
65 73 65 57 56 49 42 43 44 40 29 23 22 22 19 9 5 4 13 13 10 4 6 5 8 18 13 24 32 44 53 58 56 62 62 64 70 54 48 47 45 45 44
63 73 68 66 58 52 42 45 37 39 38 25 21 12 12 10 10 12 6 14 9 16 5 7 6 11 16 26 36 44 53 50 59 58 68 71 83 69 49 48 47 45 45
68 71 74 78 68 52 53 41 36 35 35 29 19 17 10 7 6 3 5 10 6 17 4 5 4 10 18 28 41 43 45 47 57 58 65 72 86 77 50 47 48 46 41
79 86 78 81 71 60 59 46 43 41 47 34 31 24 18 22 18 15 7 6 3 16 15 7 5 14 25 39 43 48 33 40 54 55 61 76 84 82 49 37 39 40 40
78 82 78 72 69 61 57 47 47 45 41 37 30 21 18 19 17 14 12 10 8 15 26 10 6 19 35 37 39 50 41 42 43 58 58 72 81 75 50 29 35 40 44
70 69 79 69 61 58 60 51 49 46 37 35 31 27 20 15 11 10 12 12 11 9 18 7 10 29 40 41 41 48 48 47 46 56 57 68 80 62 48 36 35 42 52
66 39 57 65 66 63 60 60 51 42 38 37 32 27 20 16 12 10 8 6 15 16 15 12 18 34 42 37 45 41 41 42 49 47 59 71 68 58 49 38 43 50 61
63 37 39 67 70 65 67 60 53 47 40 34 31 27 18 12 9 8 7 7 19 17 12 13 23 25 18 34 38 36 34 35 44 36 65 66 64 58 51 50 55 58 59
51 54 80 72 70 72 66 59 54 46 39 35 34 29 24 19 17 20 17 20 21 14 20 23 20 12 27 37 29 32 39 34 38 32 54 59 64 55 55 58 56 54 53
49 71 108 107 88 78 67 63 56 53 50 46 40 32 26 23 21 18 18 19 24 29 25 12 15 19 28 36 38 39 37 33 31 39 45 46 52 51 60 54 51 51 48
53 24 59 45 62 63 62 55 57 57 52 43 37 30 27 27 22 23 17 18 20 21 18 4 7 20 35 43 40 47 45 44 43 52 37 48 51 59 67 61 59 58 53
44 47 62 56 59 53 59 58 56 56 51 46 41 38 31 20 24 21 16 16 14 21 15 11 21 35 51 49 49 45 38 38 36 60 40 45 60 62 85 103 94 83 67
44 50 63 55 43 47 56 58 62 64 63 56 43 23 30 22 24 23 23 23 23 25 25 28 36 51 58 59 47 44 37 46 52 60 48 47 57 57 68 75 89 106 99
39 34 42 52 64 74 74 77 58 62 52 51 45 45 45 38 28 28 32 29 31 34 38 40 50 55 61 68 42 44 42 43 47 59 60 56 54 59 65 65 66 81 105
43 48 43 50 55 57 59 58 60 48 50 56 55 53 43 40 38 35 31 32 39 45 46 50 55 52 55 56 42 33 37 34 39 53 60 64 62 61 67 74 75 75 87
48 44 45 55 50 65 66 58 61 66 61 58 53 46 39 40 40 37 32 33 36 38 44 46 46 45 52 54 52 38 45 46 42 44 57 61 70 69 66 66 64 65 80
49 44 49 62 60 68 60 56 61 66 64 60 53 50 46 42 42 37 39 45 44 40 35 40 36 35 50 57 53 45 43 45 46 40 62 58 68 65 54 72 65 63 59
Wind_Direction_500mb
209 201 212 234 231 221 234 224 248 261 247 236 227 218 231 269 281 300 304 324 318 320 336 336 333 338 344 350 349 354 359 360 359 355 352 349 348 345 340 338 338 337 332
209 206 195 217 220 209 219 205 230 226 246 237 228 205 237 249 288 289 305 307 320 321 324 337 337 341 344 349 348 348 347 348 348 343 339 335 336 334 327 325 324 324 320
206 210 196 207 208 200 207 218 220 224 247 198 223 246 229 239 266 275 291 317 340 331 336 332 338 345 350 352 345 346 339 332 329 329 326 323 319 322 325 328 322 314 307
201 208 194 208 198 206 213 209 208 231 207 203 227 240 211 239 268 296 301 312 316 333 332 338 345 349 346 340 331 332 326 333 330 327 322 318 321 322 324 321 316 312 308
197 205 194 206 194 207 210 208 203 213 209 208 251 232 252 274 302 275 304 305 307 313 323 343 340 338 322 324 322 322 322 328 323 325 322 319 322 323 323 321 322 320 319
195 208 191 206 196 202 205 207 207 198 211 230 234 213 239 257 266 288 288 315 298 286 303 325 320 317 319 325 320 322 321 320 326 325 321 325 328 328 330 333 330 326 319
194 210 190 204 206 208 198 209 206 208 214 209 210 246 279 267 259 252 258 252 348 316 343 297 281 317 324 316 318 316 322 322 324 325 328 332 334 338 335 333 333 330 328
203 208 194 207 209 210 192 212 209 215 204 226 212 219 237 232 247 269 304 325 232 254 337 228 279 317 334 332 321 320 321 323 330 336 340 339 338 338 335 332 331 330 331
209 209 198 203 216 206 198 205 209 205 207 214 230 222 236 83 209 251 280 269 277 218 206 282 299 317 333 298 303 305 319 327 333 346 346 343 346 346 341 337 330 334 331
208 208 203 195 212 194 201 218 218 205 199 211 212 224 236 239 258 178 265 316 322 220 178 203 347 352 355 332 317 317 321 330 345 348 351 356 354 346 342 336 333 334 331
208 208 206 193 205 195 194 206 211 203 200 206 204 195 212 272 297 255 293 290 197 228 163 211 20 227 298 314 316 324 329 340 344 349 354 355 352 350 343 340 335 332 331
214 207 211 201 204 199 197 206 205 202 197 194 200 176 149 153 203 165 282 352 216 201 216 119 158 273 306 326 318 326 339 342 341 347 350 353 351 353 349 350 350 343 341
213 209 211 200 203 195 195 204 197 199 198 179 192 199 206 207 208 212 185 236 180 178 157 144 231 291 328 333 333 341 350 346 341 347 347 352 353 353 356 0 2 1 357
214 215 205 198 198 191 197 196 191 195 193 189 196 206 207 202 211 209 211 216 206 127 123 136 6 338 344 337 342 348 6 352 344 348 348 353 349 353 353 355 353 353 350
216 215 205 193 192 186 195 191 194 196 188 185 187 200 206 200 193 184 194 198 159 87 113 54 343 334 345 359 350 6 5 348 346 346 352 352 354 359 357 3 355 352 345
230 259 202 191 186 183 186 196 194 187 179 180 180 188 174 160 159 156 143 168 166 121 116 37 5 349 358 356 357 6 359 1 352 345 358 354 1 3 6 7 355 351 351
234 230 175 191 188 184 183 192 191 180 181 170 169 173 161 168 152 146 145 105 130 141 114 47 16 20 5 341 353 355 19 2 346 352 359 355 357 356 3 5 353 347 348
234 242 230 209 194 185 191 191 182 175 169 158 153 151 158 163 146 126 108 88 91 107 82 58 50 5 331 337 355 14 17 19 13 4 352 352 355 1 358 352 351 348 349
205 184 178 191 188 184 187 179 173 168 159 154 149 147 152 142 121 111 111 94 84 89 72 75 46 345 342 1 15 33 10 17 354 336 352 358 356 1 355 357 2 356 1
190 178 162 169 181 194 181 175 166 158 152 146 137 129 125 118 99 105 100 111 111 110 91 91 25 1 12 22 32 14 12 24 0 359 24 7 12 13 18 13 10 5 7
201 198 193 197 189 180 184 178 171 158 146 134 124 127 117 104 98 106 105 119 116 134 118 73 52 34 29 26 22 16 23 19 13 10 33 30 34 32 47 45 40 31 23
188 187 181 189 192 193 181 173 165 152 146 140 127 137 139 124 137 121 111 105 93 88 77 64 57 47 35 28 30 23 26 35 23 28 47 50 51 46 38 41 36 35 29
180 184 182 181 174 163 160 164 168 158 158 158 154 159 146 143 136 130 112 100 89 78 68 64 59 47 37 27 26 28 38 52 29 35 53 51 35 30 29 21 17 28 27
173 169 174 170 165 172 174 173 163 157 155 146 149 149 148 146 142 128 116 100 77 67 60 54 51 44 35 27 38 34 44 63 50 40 44 39 41 40 44 46 39 35 32
174 172 172 175 170 163 165 163 148 156 154 152 149 146 147 142 131 123 112 107 87 67 54 55 46 37 29 33 32 45 54 43 51 31 38 39 30 30 36 37 37 40 30
169 174 171 171 156 158 164 154 160 164 157 151 146 144 143 139 132 129 116 101 97 83 62 56 53 37 30 29 31 38 53 42 33 34 24 23 25 18 14 32 38 35 25
Wind_Speed_850mb
49 45 39 26 23 28 14 20 10 19 10 18 24 7 10 11 22 29 29 27 30 25 35 31 29 29 28 31 32 34 33 35 37 40 43 43 46 47 49 54 51 45 40
50 48 46 37 26 23 14 22 20 22 30 18 11 14 14 11 22 27 22 22 21 27 30 28 32 29 31 32 33 38 35 34 34 36 39 40 40 47 53 49 48 47 46
50 50 49 40 35 33 33 23 25 28 26 17 16 26 15 17 21 20 24 24 21 22 21 27 23 31 33 30 32 34 36 39 38 39 40 45 53 55 56 49 48 48 48
54 47 45 43 38 36 38 31 30 27 17 12 13 23 22 18 11 21 24 22 22 22 19 16 26 33 30 29 29 30 36 40 44 50 50 55 61 65 59 51 47 48 48
55 51 50 47 42 40 32 35 32 27 19 21 20 25 23 28 11 14 16 20 25 16 19 23 27 33 28 36 36 38 37 43 50 54 56 62 65 63 59 55 50 49 48
59 54 54 46 47 45 38 31 32 27 27 22 15 19 13 16 16 15 14 12 16 16 16 20 26 24 25 35 27 35 46 53 54 59 63 63 59 59 54 49 50 50 49
65 58 58 50 53 53 39 36 34 32 31 23 25 17 24 22 23 20 11 8 1 10 7 13 18 11 26 35 39 45 45 54 60 63 57 57 58 51 49 49 50 49 46
64 68 61 57 58 46 43 40 41 36 30 24 24 14 17 11 14 12 12 6 16 12 3 13 25 13 18 24 37 47 52 57 63 56 55 57 55 50 50 47 50 50 46
64 72 64 57 56 45 43 45 44 37 27 28 22 23 2 2 14 15 9 4 10 12 17 11 19 25 27 10 31 45 52 60 57 56 60 61 55 52 51 47 48 49 47
65 73 65 57 56 49 42 43 44 40 29 23 22 22 19 9 5 4 13 13 10 4 6 5 8 18 13 24 32 44 53 58 56 62 62 64 70 54 48 47 45 45 44
63 73 68 66 58 52 42 45 37 39 38 25 21 12 12 10 10 12 6 14 9 16 5 7 6 11 16 26 36 44 53 50 59 58 68 71 83 69 49 48 47 45 45
68 71 74 78 68 52 53 41 36 35 35 29 19 17 10 7 6 3 5 10 6 17 4 5 4 10 18 28 41 43 45 47 57 58 65 72 86 77 50 47 48 46 41
79 86 78 81 71 60 59 46 43 41 47 34 31 24 18 22 18 15 7 6 3 16 15 7 5 14 25 39 43 48 33 40 54 55 61 76 84 82 49 37 39 40 40
78 82 78 72 69 61 57 47 47 45 41 37 30 21 18 19 17 14 12 10 8 15 26 10 6 19 35 37 39 50 41 42 43 58 58 72 81 75 50 29 35 40 44
70 69 79 69 61 58 60 51 49 46 37 35 31 27 20 15 11 10 12 12 11 9 18 7 10 29 40 41 41 48 48 47 46 56 57 68 80 62 48 36 35 42 52
66 39 57 65 66 63 60 60 51 42 38 37 32 27 20 16 12 10 8 6 15 16 15 12 18 34 42 37 45 41 41 42 49 47 59 71 68 58 49 38 43 50 61
63 37 39 67 70 65 67 60 53 47 40 34 31 27 18 12 9 8 7 7 19 17 12 13 23 25 18 34 38 36 34 35 44 36 65 66 64 58 51 50 55 58 59
51 54 80 72 70 72 66 59 54 46 39 35 34 29 24 19 17 20 17 20 21 14 20 23 20 12 27 37 29 32 39 34 38 32 54 59 64 55 55 58 56 54 53
49 71 108 107 88 78 67 63 56 53 50 46 40 32 26 23 21 18 18 19 24 29 25 12 15 19 28 36 38 39 37 33 31 39 45 46 52 51 60 54 51 51 48
53 24 59 45 62 63 62 55 57 57 52 43 37 30 27 27 22 23 17 18 20 21 18 4 7 20 35 43 40 47 45 44 43 52 37 48 51 59 67 61 59 58 53
44 47 62 56 59 53 59 58 56 56 51 46 41 38 31 20 24 21 16 16 14 21 15 11 21 35 51 49 49 45 38 38 36 60 40 45 60 62 85 103 94 83 67
44 50 63 55 43 47 56 58 62 64 63 56 43 23 30 22 24 23 23 23 23 25 25 28 36 51 58 59 47 44 37 46 52 60 48 47 57 57 68 75 89 106 99
39 34 42 52 64 74 74 77 58 62 52 51 45 45 45 38 28 28 32 29 31 34 38 40 50 55 61 68 42 44 42 43 47 59 60 56 54 59 65 65 66 81 105
43 48 43 50 55 57 59 58 60 48 50 56 55 53 43 40 38 35 31 32 39 45 46 50 55 52 55 56 42 33 37 34 39 53 60 64 62 61 67 74 75 75 87
48 44 45 55 50 65 66 58 61 66 61 58 53 46 39 40 40 37 32 33 36 38 44 46 46 45 52 54 52 38 45 46 42 44 57 61 70 69 66 66 64 65 80
49 44 49 62 60 68 60 56 61 66 64 60 53 50 46 42 42 37 39 45 44 40 35 40 36 35 50 57 53 45 43 45 46 40 62 58 68 65 54 72 65 63 59
Wind_Direction_850mb
209 201 212 234 231 221 234 224 248 261 247 236 227 218 231 269 281 300 304 324 318 320 336 336 333 338 344 350 349 354 359 360 359 355 352 349 348 345 340 338 338 337 332
209 206 195 217 220 209 219 205 230 226 246 237 228 205 237 249 288 289 305 307 320 321 324 337 337 341 344 349 348 348 347 348 348 343 339 335 336 334 327 325 324 324 320
206 210 196 207 208 200 207 218 220 224 247 198 223 246 229 239 266 275 291 317 340 331 336 332 338 345 350 352 345 346 339 332 329 329 326 323 319 322 325 328 322 314 307
201 208 194 208 198 206 213 209 208 231 207 203 227 240 211 239 268 296 301 312 316 333 332 338 345 349 346 340 331 332 326 333 330 327 322 318 321 322 324 321 316 312 308
197 205 194 206 194 207 210 208 203 213 209 208 251 232 252 274 302 275 304 305 307 313 323 343 340 338 322 324 322 322 322 328 323 325 322 319 322 323 323 321 322 320 319
195 208 191 206 196 202 205 207 207 198 211 230 234 213 239 257 266 288 288 315 298 286 303 325 320 317 319 325 320 322 321 320 326 325 321 325 328 328 330 333 330 326 319
194 210 190 204 206 208 198 209 206 208 214 209 210 246 279 267 259 252 258 252 348 316 343 297 281 317 324 316 318 316 322 322 324 325 328 332 334 338 335 333 333 330 328
203 208 194 207 209 210 192 212 209 215 204 226 212 219 237 232 247 269 304 325 232 254 337 228 279 317 334 332 321 320 321 323 330 336 340 339 338 338 335 332 331 330 331
209 209 198 203 216 206 198 205 209 205 207 214 230 222 236 83 209 251 280 269 277 218 206 282 299 317 333 298 303 305 319 327 333 346 346 343 346 346 341 337 330 334 331
208 208 203 195 212 194 201 218 218 205 199 211 212 224 236 239 258 178 265 316 322 220 178 203 347 352 355 332 317 317 321 330 345 348 351 356 354 346 342 336 333 334 331
208 208 206 193 205 195 194 206 211 203 200 206 204 195 212 272 297 255 293 290 197 228 163 211 20 227 298 314 316 324 329 340 344 349 354 355 352 350 343 340 335 332 331
214 207 211 201 204 199 197 206 205 202 197 194 200 176 149 153 203 165 282 352 216 201 216 119 158 273 306 326 318 326 339 342 341 347 350 353 351 353 349 350 350 343 341
213 209 211 200 203 195 195 204 197 199 198 179 192 199 206 207 208 212 185 236 180 178 157 144 231 291 328 333 333 341 350 346 341 347 347 352 353 353 356 0 2 1 357
214 215 205 198 198 191 197 196 191 195 193 189 196 206 207 202 211 209 211 216 206 127 123 136 6 338 344 337 342 348 6 352 344 348 348 353 349 353 353 355 353 353 350
216 215 205 193 192 186 195 191 194 196 188 185 187 200 206 200 193 184 194 198 159 87 113 54 343 334 345 359 350 6 5 348 346 346 352 352 354 359 357 3 355 352 345
230 259 202 191 186 183 186 196 194 187 179 180 180 188 174 160 159 156 143 168 166 121 116 37 5 349 358 356 357 6 359 1 352 345 358 354 1 3 6 7 355 351 351
234 230 175 191 188 184 183 192 191 180 181 170 169 173 161 168 152 146 145 105 130 141 114 47 16 20 5 341 353 355 19 2 346 352 359 355 357 356 3 5 353 347 348
234 242 230 209 194 185 191 191 182 175 169 158 153 151 158 163 146 126 108 88 91 107 82 58 50 5 331 337 355 14 17 19 13 4 352 352 355 1 358 352 351 348 349
205 184 178 191 188 184 187 179 173 168 159 154 149 147 152 142 121 111 111 94 84 89 72 75 46 345 342 1 15 33 10 17 354 336 352 358 356 1 355 357 2 356 1
190 178 162 169 181 194 181 175 166 158 152 146 137 129 125 118 99 105 100 111 111 110 91 91 25 1 12 22 32 14 12 24 0 359 24 7 12 13 18 13 10 5 7
201 198 193 197 189 180 184 178 171 158 146 134 124 127 117 104 98 106 105 119 116 134 118 73 52 34 29 26 22 16 23 19 13 10 33 30 34 32 47 45 40 31 23
188 187 181 189 192 193 181 173 165 152 146 140 127 137 139 124 137 121 111 105 93 88 77 64 57 47 35 28 30 23 26 35 23 28 47 50 51 46 38 41 36 35 29
180 184 182 181 174 163 160 164 168 158 158 158 154 159 146 143 136 130 112 100 89 78 68 64 59 47 37 27 26 28 38 52 29 35 53 51 35 30 29 21 17 28 27
173 169 174 170 165 172 174 173 163 157 155 146 149 149 148 146 142 128 116 100 77 67 60 54 51 44 35 27 38 34 44 63 50 40 44 39 41 40 44 46 39 35 32
174 172 172 175 170 163 165 163 148 156 154 152 149 146 147 142 131 123 112 107 87 67 54 55 46 37 29 33 32 45 54 43 51 31 38 39 30 30 36 37 37 40 30
169 174 171 171 156 158 164 154 160 164 157 151 146 144 143 139 132 129 116 101 97 83 62 56 53 37 30 29 31 38 53 42 33 34 24 23 25 18 14 32 38 35 25